Temp
88 87 88 93 92 92 90 88 86 83 86 91 92 93 96 96 83 93 89 67 68 68 67 67 68 69 69 70 72 74 73 74 75 75 75 76 77 77
91 86 87 90 91 90 85 91 89 82 83 94 95 94 93 92 84 88 83 73 68 67 66 66 67 67 68 68 68 69 70 71 71 71 72 72 73 74
88 87 87 88 91 90 86 89 86 83 79 91 93 94 87 86 90 90 85 88 80 67 66 65 65 65 65 65 66 66 66 67 68 69 70 71 71 72
87 88 88 92 87 87 91 87 88 87 85 82 88 87 84 86 87 86 89 94 90 67 65 64 64 64 63 62 62 62 62 63 64 65 66 68 68 68
89 88 87 88 86 89 87 89 92 91 89 87 87 92 92 87 85 85 85 87 89 67 65 64 64 63 62 61 60 59 58 59 60 60 62 63 65 65
87 87 89 88 86 84 86 85 88 86 88 83 87 88 89 86 86 86 83 85 87 89 70 72 70 64 63 62 61 60 58 57 57 58 58 59 61 62
87 87 89 82 71 73 82 84 81 80 80 78 78 78 79 78 78 81 81 82 80 81 83 81 78 80 75 64 63 61 59 58 57 57 57 57 57 58
86 87 87 76 73 67 67 66 70 80 79 78 80 76 76 79 82 81 78 78 72 70 75 69 70 72 64 63 61 60 59 59 58 57 57 56 56 57
85 85 84 86 79 82 67 66 67 66 68 76 73 74 75 76 75 76 73 69 64 63 65 59 61 59 61 59 58 57 57 57 57 56 56 56 55 55
83 83 82 81 79 78 79 78 76 75 75 82 76 73 72 73 73 71 71 66 65 63 64 58 59 55 55 56 57 57 56 56 56 56 56 54 53 53
79 79 79 79 62 63 77 75 74 69 61 60 59 60 60 60 65 73 71 69 62 62 63 64 59 56 57 55 56 56 55 55 55 55 55 55 53 53
74 71 60 63 58 60 75 73 70 64 65 64 70 67 65 65 64 65 68 67 64 62 66 62 62 68 61 64 66 66 65 55 54 54 54 54 53 64
74 72 71 56 55 57 62 72 65 65 64 68 70 75 77 77 77 76 75 77 76 73 71 72 73 74 75 76 74 75 74 64 68 61 51 52 51 54
65 62 59 53 53 56 61 56 58 63 73 73 72 73 75 76 75 75 74 74 75 72 73 73 77 75 75 76 74 77 75 76 75 71 69 60 51 52
63 58 54 53 54 59 57 58 58 75 75 74 72 73 75 75 75 75 74 73 73 75 76 72 74 73 76 74 73 75 73 78 77 75 69 67 70 66
59 59 57 59 59 63 66 69 77 77 74 74 74 75 78 78 76 78 77 79 78 74 73 72 71 72 73 74 75 73 75 73 78 73 72 71 69 72
58 60 64 67 68 69 69 71 74 76 75 75 75 75 75 76 75 77 77 76 74 73 74 76 73 72 73 68 72 72 72 73 75 73 71 73 72 68
61 62 65 66 66 67 67 68 71 70 73 74 74 74 74 74 74 74 75 73 72 71 71 72 72 73 74 67 62 69 71 72 73 73 71 72 73 72
69 65 65 66 66 68 70 73 72 73 72 74 73 73 73 72 74 72 72 72 71 71 70 72 71 69 67 67 70 57 68 70 71 71 73 71 70 73
72 71 68 69 70 72 72 72 72 73 73 73 72 73 73 72 72 71 71 69 70 71 72 72 70 68 66 64 66 71 58 69 69 68 69 72 73 61
73 72 73 73 72 73 73 73 72 72 72 72 72 71 72 71 70 72 69 60 61 70 69 69 69 56 69 71 69 70 72 54 63 67 68 68 68 69
76 75 74 73 73 72 71 71 70 69 70 72 73 73 73 75 73 74 72 72 71 71 70 72 73 72 70 68 67 67 70 72 62 55 57 59 66 62
75 75 74 74 73 73 72 73 73 74 74 74 74 74 74 74 74 75 75 75 73 71 71 70 72 72 70 70 66 68 68 69 69 66 66 56 56 55
MSLP
1018.02 1018.04 1017.89 1017.37 1017.52 1017.48 1017.70 1017.57 1017.00 1015.93 1015.12 1015.05 1015.32 1015.72 1015.83 1016.01 1016.89 1016.57 1016.94 1018.43 1018.44 1018.45 1018.43 1018.36 1018.16 1018.01 1017.82 1017.47 1017.16 1017.33 1017.46 1017.46 1017.50 1017.56 1017.62 1017.65 1017.68 1017.69
1017.51 1017.93 1017.80 1017.58 1017.27 1017.53 1017.92 1017.09 1016.74 1017.00 1015.96 1014.88 1015.10 1015.52 1015.90 1015.94 1016.76 1016.80 1017.26 1017.83 1018.28 1018.39 1018.41 1018.41 1018.35 1018.24 1018.13 1017.94 1017.81 1017.76 1017.78 1017.82 1017.85 1017.88 1017.87 1017.79 1017.72 1017.63
1017.55 1017.54 1017.45 1017.53 1017.09 1016.92 1017.37 1017.20 1017.24 1017.33 1016.67 1015.33 1015.42 1015.40 1016.22 1016.25 1016.03 1016.57 1017.12 1016.80 1017.59 1018.48 1018.61 1018.63 1018.59 1018.53 1018.45 1018.34 1018.29 1018.24 1018.26 1018.27 1018.24 1018.18 1018.09 1018.02 1017.91 1017.75
1017.13 1017.12 1017.16 1016.82 1017.14 1017.05 1016.67 1016.85 1016.59 1016.83 1016.63 1016.09 1015.55 1015.97 1016.36 1016.15 1016.20 1016.38 1016.26 1016.18 1016.58 1018.54 1018.84 1018.87 1018.88 1018.88 1018.79 1018.75 1018.78 1018.83 1018.77 1018.67 1018.63 1018.59 1018.54 1018.44 1018.40 1018.32
1016.74 1016.77 1016.98 1016.95 1016.98 1016.67 1016.99 1016.65 1015.99 1016.00 1016.05 1016.07 1015.55 1015.01 1015.38 1016.09 1016.13 1016.34 1016.39 1016.18 1016.63 1018.33 1018.90 1019.09 1019.20 1019.21 1019.18 1019.09 1019.12 1019.22 1019.28 1019.16 1019.04 1018.99 1018.95 1018.91 1018.86 1018.84
1016.72 1016.67 1016.61 1016.63 1016.86 1017.13 1016.90 1016.95 1016.49 1016.53 1015.94 1016.25 1015.57 1015.07 1014.91 1015.59 1016.06 1015.72 1015.84 1016.05 1015.87 1016.27 1018.11 1017.99 1018.85 1019.44 1019.60 1019.63 1019.70 1019.73 1019.75 1019.79 1019.72 1019.62 1019.54 1019.64 1019.56 1019.40
1016.48 1016.57 1016.44 1016.76 1017.32 1017.38 1017.42 1016.98 1017.09 1016.94 1016.77 1016.74 1016.47 1016.10 1015.62 1015.95 1016.20 1016.28 1016.10 1016.11 1016.44 1016.38 1016.50 1017.38 1017.93 1018.03 1019.00 1019.86 1020.21 1020.32 1020.30 1020.27 1020.17 1020.05 1020.05 1020.12 1020.21 1020.13
1015.98 1016.17 1016.54 1017.13 1017.51 1017.73 1017.82 1017.77 1017.81 1017.48 1017.19 1016.97 1016.45 1016.53 1016.64 1016.59 1016.45 1016.50 1016.49 1016.42 1016.82 1017.66 1017.50 1018.28 1018.62 1019.15 1020.38 1020.69 1020.87 1020.83 1020.94 1020.79 1020.84 1020.64 1020.49 1020.46 1020.59 1020.35
1016.06 1016.27 1016.53 1016.68 1017.27 1017.26 1018.05 1018.13 1018.23 1018.18 1018.04 1017.62 1017.45 1017.64 1017.54 1017.64 1017.53 1017.13 1017.31 1017.71 1018.40 1018.99 1018.77 1019.54 1020.18 1020.60 1021.10 1021.38 1021.22 1021.24 1021.42 1021.25 1021.23 1021.16 1021.01 1020.87 1020.84 1020.63
1016.26 1016.49 1016.69 1016.93 1017.44 1017.60 1017.52 1017.86 1018.36 1018.58 1018.57 1017.55 1018.19 1018.78 1018.79 1018.53 1018.23 1018.19 1018.11 1018.64 1019.13 1019.47 1019.39 1019.85 1020.56 1021.21 1021.61 1021.52 1021.57 1021.36 1021.40 1021.72 1021.72 1021.56 1021.45 1021.35 1021.37 1021.27
1016.91 1017.08 1017.25 1017.41 1018.23 1018.21 1017.75 1017.96 1018.49 1019.25 1019.78 1019.74 1019.78 1019.85 1019.71 1019.23 1018.58 1018.02 1017.95 1018.07 1018.85 1019.47 1019.79 1019.81 1020.59 1020.95 1021.23 1021.33 1021.42 1021.53 1021.52 1021.82 1021.72 1021.77 1021.80 1021.69 1021.68 1021.54
1017.35 1017.91 1018.10 1018.39 1018.53 1018.40 1018.08 1018.39 1018.94 1019.69 1019.86 1020.12 1019.88 1019.87 1019.71 1019.51 1019.17 1018.91 1018.55 1018.31 1018.66 1019.12 1019.62 1019.81 1020.19 1020.11 1020.28 1020.47 1020.41 1020.61 1020.83 1021.68 1021.81 1021.91 1021.77 1021.77 1021.65 1020.96
1017.08 1017.69 1018.39 1018.73 1018.59 1018.69 1018.69 1018.80 1019.22 1019.67 1019.95 1019.81 1019.63 1019.28 1019.02 1018.76 1018.51 1018.72 1018.48 1017.89 1017.79 1018.52 1019.43 1019.02 1018.60 1018.46 1018.29 1017.96 1018.62 1018.99 1019.24 1020.43 1020.44 1021.17 1021.54 1021.58 1021.68 1021.44
1017.71 1018.56 1018.86 1019.08 1019.36 1018.78 1019.23 1019.40 1019.62 1019.48 1019.20 1019.27 1019.23 1019.12 1019.08 1019.10 1019.17 1019.06 1019.31 1019.14 1019.18 1019.23 1019.24 1018.90 1018.24 1018.28 1017.78 1017.33 1017.56 1017.90 1018.22 1018.65 1019.02 1019.43 1019.80 1020.19 1021.23 1021.37
1017.82 1018.59 1018.75 1019.64 1019.61 1019.01 1019.70 1019.78 1019.62 1019.10 1019.01 1018.92 1019.09 1019.05 1019.13 1019.40 1019.28 1019.10 1019.48 1019.63 1019.67 1019.49 1019.51 1019.58 1019.16 1018.97 1018.27 1017.89 1017.78 1017.71 1018.13 1017.54 1018.14 1018.41 1019.10 1019.48 1019.16 1020.00
1018.68 1018.65 1019.23 1019.59 1019.28 1019.43 1019.42 1019.44 1019.12 1018.90 1018.82 1019.01 1019.14 1019.30 1019.27 1018.99 1019.14 1019.11 1018.92 1018.77 1018.58 1019.14 1019.90 1020.02 1019.81 1019.39 1018.69 1018.56 1018.21 1018.02 1018.01 1017.62 1017.52 1017.97 1018.16 1018.49 1018.82 1019.00
1018.78 1018.47 1019.14 1019.18 1019.22 1019.35 1019.35 1019.60 1019.46 1019.32 1019.11 1019.13 1019.10 1019.14 1019.19 1019.29 1019.46 1019.42 1019.32 1019.06 1018.91 1018.97 1019.06 1019.19 1019.54 1019.70 1019.55 1019.89 1018.84 1018.79 1018.50 1018.03 1017.98 1018.25 1018.42 1017.30 1017.93 1018.08
1018.57 1018.60 1018.74 1018.99 1019.18 1019.45 1019.48 1019.63 1019.68 1019.63 1019.46 1019.26 1019.35 1019.46 1019.50 1019.50 1019.57 1019.85 1019.75 1019.53 1019.38 1019.55 1019.62 1019.64 1019.31 1018.95 1018.86 1020.29 1020.36 1019.58 1019.19 1018.78 1018.47 1018.46 1018.42 1017.31 1016.98 1017.42
1018.21 1018.75 1018.75 1018.73 1019.14 1019.40 1019.27 1019.24 1019.28 1019.69 1019.75 1019.48 1019.56 1019.78 1019.90 1020.07 1019.95 1019.94 1019.94 1019.72 1019.71 1019.85 1020.16 1020.05 1019.74 1019.72 1019.14 1018.92 1019.76 1020.40 1019.78 1019.47 1019.03 1018.41 1018.04 1017.96 1017.60 1017.46
1018.07 1018.16 1018.46 1018.80 1018.86 1018.84 1019.10 1019.42 1019.66 1019.73 1019.77 1019.80 1019.88 1019.90 1020.04 1020.08 1020.07 1020.07 1020.10 1020.09 1019.95 1019.96 1019.85 1019.97 1020.26 1020.54 1020.13 1020.09 1019.79 1019.59 1020.01 1019.82 1019.64 1019.07 1018.44 1018.22 1017.65 1017.93
1017.78 1017.93 1018.17 1018.52 1018.90 1019.00 1019.11 1019.38 1019.70 1019.87 1019.90 1019.98 1020.12 1020.20 1020.23 1020.23 1020.40 1020.28 1020.61 1020.52 1020.35 1020.17 1019.91 1019.83 1020.74 1021.88 1020.63 1019.86 1019.12 1018.85 1019.32 1020.02 1019.84 1019.83 1019.35 1018.79 1017.95 1017.36
1017.35 1017.61 1018.04 1018.58 1018.93 1019.23 1019.59 1019.83 1019.99 1020.21 1020.30 1020.13 1020.10 1020.29 1020.40 1020.27 1020.26 1020.24 1020.16 1020.10 1020.17 1020.16 1020.05 1020.15 1020.13 1019.94 1019.83 1019.31 1018.92 1018.96 1018.68 1018.98 1019.07 1019.17 1019.24 1019.37 1018.92 1018.51
1017.53 1017.76 1018.30 1018.58 1019.03 1019.32 1019.52 1019.62 1019.56 1019.56 1019.76 1019.70 1019.72 1020.13 1020.35 1020.12 1020.49 1020.27 1020.09 1020.03 1019.84 1020.26 1019.99 1019.93 1019.65 1019.36 1019.12 1018.87 1019.04 1018.72 1018.44 1018.29 1018.28 1018.62 1018.69 1019.01 1019.17 1019.17
Wind_Speed
4 5 7 4 3 4 3 5 6 7 5 5 4 5 2 1 6 3 4 7 7 8 8 8 8 10 11 14 14 11 11 13 10 6 5 7 8 11
7 4 4 5 4 5 5 7 4 4 7 4 1 4 6 6 7 4 6 8 8 7 8 8 9 10 11 13 14 14 13 12 11 10 8 8 7 7
7 5 5 4 7 5 4 7 4 4 5 7 4 2 4 2 3 3 5 3 8 8 7 9 10 11 12 13 13 13 13 13 12 11 11 10 10 10
7 5 6 5 4 6 7 1 4 4 6 7 5 3 4 5 4 4 4 2 2 9 7 9 10 11 12 13 13 13 13 14 14 14 14 14 15 17
6 6 6 6 5 7 5 6 4 3 3 7 7 6 0 4 3 4 4 2 2 13 10 10 11 12 13 13 13 13 11 12 13 13 13 14 15 15
7 7 7 6 7 6 6 5 6 6 4 5 8 6 4 5 4 5 3 4 3 7 8 13 9 13 15 14 14 14 12 12 12 13 13 13 14 14
8 7 8 4 5 5 4 7 6 5 5 4 6 5 4 3 3 4 5 3 2 3 2 6 8 4 8 14 15 14 12 12 11 11 12 12 11 13
8 7 6 5 5 6 6 10 9 7 6 5 7 5 4 5 4 5 4 5 1 7 3 6 8 8 8 7 10 11 9 10 9 10 11 11 11 13
8 7 6 3 4 5 7 9 8 6 4 6 5 4 3 5 5 5 4 4 3 4 2 4 5 6 5 6 11 12 11 11 10 10 9 9 10 12
3 4 6 2 2 6 5 3 5 7 7 5 6 6 5 6 5 3 4 6 5 4 4 3 2 2 2 2 5 7 6 6 6 6 7 8 7 8
2 2 4 3 7 7 4 5 5 7 10 11 10 6 6 8 8 2 1 2 2 3 4 2 1 2 3 3 4 5 4 5 5 5 5 5 4 7
5 6 10 7 6 6 3 7 6 5 4 4 5 6 4 7 10 8 4 4 3 2 3 2 2 3 2 3 3 5 7 8 5 5 5 3 3 8
6 5 6 6 7 8 6 6 7 7 6 5 4 3 3 4 6 6 5 4 4 5 4 4 4 5 3 1 5 4 4 9 7 7 9 8 6 7
7 5 5 6 7 10 9 10 9 8 5 4 4 3 4 4 5 5 7 8 8 8 6 8 3 5 5 3 3 3 6 4 4 4 4 6 9 9
7 9 10 7 11 12 6 6 8 4 4 5 4 4 5 5 3 5 6 6 7 6 7 8 7 6 4 5 5 4 5 2 3 4 3 5 5 5
9 6 6 7 11 8 7 5 1 2 3 5 4 4 3 2 4 3 3 2 2 6 5 6 6 5 5 5 4 5 5 4 2 2 2 6 6 7
7 5 4 5 5 5 5 4 3 4 4 4 4 4 3 4 4 4 3 3 4 4 4 3 3 1 4 5 5 5 6 6 5 6 7 5 7 8
5 5 6 6 5 5 5 5 5 3 4 4 4 4 4 4 4 3 3 4 4 4 5 5 5 5 4 5 6 6 6 6 6 6 7 7 7 4
6 5 6 7 6 5 5 6 6 5 3 5 5 4 4 4 1 4 3 4 4 4 4 4 5 6 6 6 7 5 7 8 7 7 6 6 7 8
6 7 7 6 5 5 5 5 6 6 5 5 4 4 4 3 4 4 4 4 4 3 3 4 5 6 6 6 6 4 4 5 7 8 7 7 7 4
6 7 6 6 6 6 5 5 4 4 4 4 3 4 3 4 3 4 6 3 3 4 5 5 5 3 6 6 6 5 3 5 3 6 8 9 9 9
5 6 5 4 5 6 5 5 5 5 5 5 4 4 3 2 3 2 3 4 3 4 5 5 2 3 5 6 7 8 7 4 12 15 13 8 7 8
6 6 6 6 6 6 6 5 5 5 4 4 4 4 3 3 2 2 1 2 3 5 5 7 5 4 5 7 4 8 10 7 10 10 2 14 12 12
Wind_Direction
264 257 267 283 255 295 269 297 297 307 326 123 309 118 297 209 77 336 78 94 83 73 64 51 49 44 35 40 54 61 49 41 24 351 305 291 281 258
262 237 270 262 260 238 249 284 299 300 298 344 350 10 345 341 114 282 88 158 94 81 77 67 59 57 54 53 52 54 56 54 53 48 40 32 17 352
271 254 262 276 279 225 194 254 267 251 285 307 321 41 318 256 241 207 184 250 122 96 82 79 73 69 65 63 61 59 56 51 47 45 43 38 33 28
246 246 255 263 248 228 266 305 291 263 267 292 299 296 292 305 304 289 267 305 21 102 100 93 86 79 75 71 68 65 67 68 66 62 58 59 59 59
257 258 264 272 272 302 292 304 288 287 258 278 302 286 70 264 286 244 257 247 233 127 125 103 92 86 79 75 73 71 64 63 65 66 68 70 71 70
257 259 261 256 248 260 268 284 266 288 300 290 296 302 293 93 306 294 253 230 262 162 95 81 115 104 88 78 71 69 68 68 68 69 68 65 68 72
260 258 244 313 38 19 288 269 274 286 297 297 286 285 311 20 335 319 297 302 256 261 209 166 156 145 120 94 89 74 78 78 78 80 78 74 71 71
263 260 266 168 135 92 67 57 35 314 290 291 293 324 340 329 303 313 283 288 304 19 359 63 39 50 55 77 79 81 79 73 70 78 85 88 81 82
260 258 268 153 248 171 135 129 86 55 32 326 324 359 309 347 324 298 24 35 45 359 357 79 52 71 68 84 87 81 70 72 74 87 93 100 103 98
294 282 286 254 34 299 172 135 66 46 19 41 54 54 33 356 341 346 358 100 94 53 354 94 128 101 109 136 124 124 106 90 93 109 110 103 100 106
180 48 326 272 40 306 252 159 110 89 60 65 84 88 59 33 2 240 197 193 124 52 20 101 121 132 195 194 193 181 144 148 141 140 134 124 133 157
126 91 54 43 359 334 237 152 146 132 119 128 101 80 60 61 46 50 31 74 108 124 83 109 174 215 181 179 195 182 176 177 185 195 177 184 268 264
140 115 82 44 54 40 14 131 133 134 114 115 118 114 95 86 74 65 42 34 84 83 84 237 181 186 216 102 153 169 205 143 193 193 216 236 247 288
119 96 88 77 76 80 82 110 138 174 144 124 107 100 91 78 75 63 55 51 58 51 42 345 43 13 344 7 52 155 174 190 214 195 239 176 206 242
114 110 124 138 128 93 96 151 197 169 143 143 105 78 69 57 153 130 109 111 83 52 57 35 11 349 356 2 342 16 307 128 148 262 179 245 207 201
107 109 95 76 61 108 154 196 211 73 115 112 114 93 115 76 65 19 47 24 79 114 99 50 18 347 351 4 334 350 357 321 324 140 265 210 241 219
124 126 153 135 107 102 88 88 127 138 119 118 105 91 79 80 61 46 36 63 50 25 46 38 41 116 38 341 348 358 345 329 358 3 284 256 208 221
136 126 121 129 131 137 139 136 129 123 112 108 93 78 69 49 81 70 57 44 37 35 20 12 5 333 179 111 357 1 332 329 338 321 277 303 312 141
129 141 145 142 146 161 165 159 135 101 120 99 97 86 92 99 98 72 68 45 60 43 38 16 11 356 340 345 112 15 354 339 329 319 333 309 317 313
159 152 140 147 156 151 147 134 141 152 127 117 106 94 82 78 93 81 68 40 47 20 50 43 28 7 351 357 327 346 174 321 343 326 328 326 291 183
146 142 148 151 150 155 141 141 146 127 123 125 114 100 105 106 95 111 119 58 289 26 9 8 65 209 283 277 286 343 1 203 278 311 312 310 317 317
146 139 132 127 141 133 149 153 132 163 175 178 153 130 113 77 93 88 57 9 33 356 20 338 357 297 309 309 318 332 303 354 230 221 230 254 311 318
167 154 146 146 149 159 159 178 177 170 173 172 163 183 172 188 217 112 5 350 38 335 4 330 329 308 310 301 278 284 303 321 357 351 313 206 235 247